Location: ?????
(32.9507°N, 35.6511°E)
Time: 18:31:39
(UTC+00:00)

Daily predictions for brighter satellites

Satellite Brightness Start Highest point End
(mag) Time Altitude Azimuth Time Altitude Azimuth Time Altitude Azimuth
Cosmos 2082 Rocket 2.8 17:03:41 10° N 17:09:04 42° ENE 17:14:23 10° SE
Cosmos 1743 4.0 17:06:13 10° NNW 17:09:49 42° W 17:13:25 10° SSW
STARLINK-1071 3.9 17:05:56 10° NW 17:10:01 58° NE 17:14:05 10° ESE
Cosmos 2221 Rocket 3.7 17:06:08 10° S 17:10:33 58° E 17:15:02 10° NNE
SWIFT 4.3 17:09:42 10° SW 17:12:13 15° S 17:14:43 10° SE
USA 186 1.5 17:10:43 10° SSE 17:13:18 57° ENE 17:16:05 10° N
STARLINK-1110 3.8 17:09:21 10° NW 17:13:28 63° NE 17:17:33 10° SE
STARLINK-29 2.9 17:10:22 10° SSW 17:13:33 63° SE 17:16:45 10° NE
Meteor 1-4 Rocket 4.1 17:10:32 10° SSW 17:13:45 38° W 17:17:02 10° N
CZ-2C R/B 4.1 17:11:55 10° NNE 17:16:15 43° E 17:20:39 10° S
MONITOR-E 4.3 17:16:32 10° SSE 17:18:54 38° ENE 17:21:18 10° N
STARLINK-1124 3.7 17:15:52 10° NW 17:20:00 73° NE 17:24:04 10° SE
Milstar 3 Cent rocket 3.7 17:16:31 10° SSW 17:22:04 33° SSE 17:31:47 10° E
ISS -3.5 17:21:03 10° NW 17:24:24 66° SW 17:27:37 11° SE
STARLINK-1122 3.6 17:20:49 10° NW 17:24:58 82° NE 17:28:52 11° SE
Meteor 2-9 Rocket 4.3 17:22:05 10° NNW 17:27:24 76° W 17:32:42 10° S
Okean 2 Rocket 3.3 17:23:40 10° N 17:27:57 50° E 17:32:11 10° SSE
MOS 1 4.3 17:22:25 10° SSE 17:28:05 76° ENE 17:33:47 10° N
STARLINK-1126 3.6 17:25:28 10° NW 17:29:36 90° WNW 17:33:19 13° SE
STARLINK-1320 4.4 17:27:50 10° S 17:29:58 17° SE 17:32:09 10° E
STARLINK-1322 4.4 17:28:10 10° S 17:30:20 18° SE 17:32:31 10° E
Sich 1 Rocket 3.7 17:26:02 10° N 17:30:38 85° W 17:35:08 10° S
STARLINK-1324 4.3 17:28:27 10° S 17:30:38 18° SE 17:32:49 10° E
STARLINK-1294 4.3 17:28:48 10° S 17:30:58 18° SE 17:33:08 10° E
Okean 3 3.9 17:26:57 10° SSW 17:31:13 69° W 17:35:30 10° N
STARLINK-1261 4.3 17:29:07 10° S 17:31:20 18° SE 17:33:33 10° E
STARLINK-1325 4.3 17:29:27 10° S 17:31:41 18° SE 17:33:55 10° E
STARLINK-1333 4.3 17:29:48 10° S 17:32:03 18° SE 17:34:18 10° E
STARLINK-1334 4.3 17:30:04 10° S 17:32:20 19° SE 17:34:36 10° E
STARLINK-1326 4.3 17:30:24 10° S 17:32:39 19° SE 17:34:56 10° E
Cosmos 2279 Rocket 4.3 17:27:01 10° N 17:33:01 48° E 17:38:56 10° SSE
STARLINK-1323 4.3 17:30:45 10° S 17:33:02 19° SE 17:35:19 10° E
STARLINK-1349 4.2 17:31:01 10° S 17:33:18 19° SE 17:35:37 10° ENE
STARLINK-1336 4.2 17:31:21 10° S 17:33:39 19° SE 17:35:58 10° ENE
H-2A R/B 3.3 17:32:06 10° SW 17:34:01 16° S 17:37:20 10° SSE
STARLINK-1331 4.2 17:31:42 10° S 17:34:02 19° SE 17:36:21 10° ENE
MetOp-A 4.4 17:28:52 10° SSE 17:34:04 54° ENE 17:39:16 10° N
STARLINK-1344 4.2 17:32:00 10° S 17:34:20 20° SE 17:36:40 10° ENE
Ariane Rocket 3.3 17:29:29 10° S 17:34:32 69° WSW 17:39:37 10° NNW
STARLINK-1343 4.2 17:32:22 10° S 17:34:42 20° SE 17:37:03 10° ENE
STARLINK-1082 3.6 17:30:47 10° NW 17:34:56 80° SW 17:38:26 14° SE
Cosmos 1300 Rocket 3.8 17:30:40 10° N 17:34:59 52° E 17:39:16 10° SSE
STARLINK-1346 4.2 17:32:39 10° S 17:35:00 20° SE 17:37:22 10° ENE
STARLINK-1328 4.2 17:33:03 10° S 17:35:24 20° SE 17:37:47 10° ENE
NOSS 2-2 (D) 4.2 17:32:08 10° SW 17:35:37 48° WNW 17:39:10 10° NNE
STARLINK-1354 4.2 17:33:20 10° S 17:35:42 20° SE 17:38:06 10° ENE
Resurs 01 Rocket 2.9 17:32:47 13° ESE 17:35:57 26° ENE 17:39:38 10° NNE
STARLINK-1347 4.2 17:33:38 10° S 17:36:02 20° SE 17:38:25 10° ENE
Aureole 2 Rocket 3.5 17:33:14 10° SW 17:36:12 41° WNW 17:39:03 10° N
STARLINK-1357 4.1 17:34:01 10° S 17:36:25 21° SE 17:38:50 10° ENE
STARLINK-1335 4.1 17:34:17 10° S 17:36:42 21° SE 17:39:08 10° ENE
STARLINK-1327 4.1 17:34:37 10° S 17:37:03 21° SE 17:39:29 10° ENE
STARLINK-1340 4.1 17:34:56 10° S 17:37:21 21° SE 17:39:48 10° ENE
STARLINK-1356 4.1 17:35:17 10° S 17:37:43 21° SE 17:40:11 10° ENE
STARLINK-1345 4.1 17:35:35 10° S 17:38:02 22° SE 17:40:31 10° ENE
STARLINK-1355 4.1 17:35:55 10° S 17:38:23 22° SE 17:40:52 10° ENE
STARLINK-1321 4.1 17:36:15 10° S 17:38:43 22° SE 17:41:13 10° ENE
Cosmos 1110 Rocket 3.9 17:33:38 10° S 17:38:47 74° ESE 17:43:57 10° NNE
STARLINK-1358 4.0 17:36:37 10° S 17:39:06 22° SE 17:41:36 10° ENE
STARLINK-1332 4.0 17:36:54 10° S 17:39:24 22° SE 17:41:55 10° ENE
STARLINK-1348 4.0 17:37:13 10° S 17:39:43 23° SE 17:42:15 10° ENE
STARLINK-1100 3.7 17:35:44 10° NW 17:39:51 71° SW 17:43:12 15° SE
BREEZE M DEB (TANK) 4.4 17:38:27 10° W 17:39:52 14° SW 17:41:11 10° SSW
STARLINK-1330 4.0 17:37:33 10° S 17:40:04 23° SE 17:42:36 10° ENE
STARLINK-1363 4.0 17:37:51 10° S 17:40:23 23° SE 17:42:56 10° ENE
STARLINK-1337 4.0 17:38:13 10° S 17:40:46 23° SE 17:43:19 10° ENE
MOS 1 Rocket 3.4 17:36:37 10° N 17:40:53 68° WNW 17:45:09 10° SSW
STARLINK-1342 4.0 17:38:32 10° S 17:41:05 23° SE 17:43:39 10° ENE
Cosmos 1741 Rocket 4.2 17:36:07 10° N 17:41:14 54° ENE 17:45:34 14° SE
STARLINK-1364 3.9 17:38:52 10° S 17:41:25 24° SE 17:43:59 10° ENE
STARLINK-1376 3.9 17:39:11 10° S 17:41:45 24° SE 17:44:20 10° ENE
STARLINK-1360 3.9 17:39:31 10° S 17:42:06 24° SE 17:44:41 10° ENE
STARLINK-1361 3.9 17:39:51 10° S 17:42:26 24° SE 17:45:02 10° ENE
STARLINK-1367 3.9 17:40:08 10° S 17:42:43 24° SE 17:45:19 10° ENE
STARLINK-1366 3.9 17:40:29 10° S 17:43:05 25° SE 17:45:42 10° ENE
VEP-3 3.9 17:37:43 10° SW 17:43:28 22° SSE 17:46:26 15° SE
Cosmos 304 Rocket 4.2 17:39:00 10° SSW 17:43:43 65° WNW 17:48:29 10° N
Cosmos 2151 Rocket 3.8 17:39:30 10° N 17:43:56 52° E 17:47:42 14° SSE
STARLINK-1083 3.9 17:40:44 10° NW 17:44:49 63° SW 17:47:58 16° SSE
DMSP B5D2-2 4.2 17:42:01 10° N 17:47:18 82° WNW 17:52:32 10° SSW
Cosmos 1850 Rocket 4.1 17:42:21 10° N 17:47:41 67° ENE 17:52:06 15° SSE
Resurs 1-3 3.8 17:44:19 14° SSE 17:47:57 55° ENE 17:52:14 10° N
STARLINK-52 3.8 17:45:46 10° WSW 17:48:54 53° NW 17:52:03 10° NE
STARLINK-1125 4.0 17:45:45 10° NW 17:49:48 56° SW 17:52:46 17° SSE
Cosmos 1378 4.3 17:48:40 20° ESE 17:50:01 24° E 17:53:03 10° NE
Cosmos 1331 Rocket 3.9 17:45:34 10° SSW 17:50:42 86° ESE 17:55:54 10° NNE
Cosmos 1378 Rocket 3.7 17:46:58 10° SSE 17:51:13 51° E 17:55:27 10° NNE
Cosmos 1674 Rocket 3.5 17:47:09 10° S 17:51:29 72° E 17:55:53 10° N
STARLINK-1374 4.4 17:48:14 10° S 17:51:33 26° SE 17:54:53 10° ENE
BREEZE-M DEB (TANK) 2.1 17:50:22 10° SSW 17:52:29 52° SE 17:56:18 10° NE
STARLINK-1109 4.2 17:50:45 10° NW 17:54:45 49° SW 17:57:32 18° SSE
NOSS 3-4 (A) 3.9 17:50:14 10° S 17:55:25 33° ESE 18:00:44 10° NE
NOSS 3-4 (C) 3.9 17:50:21 10° S 17:55:32 33° ESE 18:00:49 10° NE
STARLINK-1339 4.3 17:52:22 10° S 17:55:48 29° SE 17:59:15 10° ENE
COSMOS 2455 4.1 17:57:33 18° ESE 17:58:14 18° ESE 18:02:08 10° ENE
STARLINK-1091 4.4 17:55:46 10° WNW 17:59:42 43° SW 18:02:18 19° SSE
STARLINK-1377 4.2 17:56:32 10° SSW 18:00:04 32° SE 18:03:38 10° ENE
SJ-6B 3.9 17:57:18 10° S 18:00:47 39° W 18:04:19 10° NNW
STARLINK-1353 4.0 18:00:41 10° SSW 18:04:19 35° SE 18:07:59 10° ENE
Cosmos 1302 Rocket 4.1 17:59:43 10° S 18:04:53 57° ESE 18:10:04 10° NNE
SPOT 3 Rocket 3.6 18:02:30 14° SSE 18:06:59 83° WSW 18:12:10 10° NNW
STARLINK-1375 3.9 18:04:54 10° SSW 18:08:37 39° SE 18:12:21 10° ENE
SAR-Lupe-2 4.5 18:06:18 10° NE 18:09:27 28° E 18:09:33 28° ESE
USA 267 4.2 18:04:18 11° SSE 18:09:59 39° SW 18:16:02 10° WNW
STARLINK-1104 4.4 18:08:06 10° NNW 18:12:01 40° NE 18:13:51 25° E
CZ-2C R/B 3.7 18:07:29 10° N 18:12:53 50° WNW 18:18:13 10° SSW
STARLINK-1350 3.7 18:09:06 10° SSW 18:12:53 44° SE 18:16:41 10° ENE
FALCON 9 DEB 3.9 18:10:19 10° WSW 18:13:38 53° NW 18:17:01 10° NE
H-2A R/B 4.3 18:09:48 10° SW 18:13:38 22° W 18:17:35 10° NW
Abrixas rocket 2.1 18:11:25 10° NW 18:14:19 61° NE 18:14:52 48° E
Sakura Rocket 4.3 18:10:49 10° W 18:16:11 48° S 18:20:03 26° SE
Cosmos 1943 Rocket 2.2 18:11:00 10° SSW 18:16:31 80° WNW 18:22:07 10° NNE
STARLINK-1144 4.3 18:13:01 10° NNW 18:17:00 44° NE 18:18:37 29° E
STARLINK-1352 3.6 18:13:23 10° SSW 18:17:14 49° SE 18:21:06 10° NE
Cosmos 1975 Rocket 3.9 18:16:38 29° ESE 18:17:20 31° E 18:21:13 10° NNE
Cosmos 292 Rocket 4.1 18:16:27 27° SSE 18:18:39 44° ESE 18:23:15 10° NNE
STARLINK-1368 3.5 18:17:41 10° SSW 18:21:35 55° SE 18:25:30 10° NE
GPS 2-04 Rocket1 2.7 18:18:32 10° W 18:21:51 46° SSW 18:22:18 43° S
STARLINK-1103 4.1 18:17:58 10° NNW 18:21:59 50° NE 18:23:24 34° E
ATLAS 2AS CENTAUR R/B 3.0 18:15:01 10° SSW 18:22:44 65° ESE 18:30:38 10° NE
STARLINK-1369 3.4 18:21:51 10° SSW 18:25:45 61° SE 18:29:40 10° NE
SL-27 R/B 4.3 18:24:11 10° NNE 18:26:25 18° ENE 18:26:25 18° ENE
STARLINK-1101 3.9 18:22:54 10° NW 18:26:59 55° NE 18:28:11 39° E
STARLINK-1372 3.3 18:26:11 10° SW 18:30:08 69° SE 18:34:05 10° NE
NOSS 3-2 (A) 4.5 18:23:15 10° NNW 18:30:52 53° NE 18:35:28 27° ESE
STARLINK-1102 3.8 18:27:52 10° NW 18:31:58 62° NE 18:32:58 45° E
STARLINK-1378 3.3 18:30:32 10° SW 18:34:29 77° SE 18:38:28 10° NE
Cosmos 1656 Rocket 3.9 18:34:10 34° SSE 18:36:03 47° ESE 18:41:24 10° NNE
STARLINK-1111 3.6 18:32:51 10° NW 18:36:59 70° NE 18:37:47 53° ESE
Landsat 7 4.1 18:36:59 41° ESE 18:38:05 50° ENE 18:42:41 10° N
STARLINK-1379 3.3 18:34:57 10° SW 18:38:55 85° SE 18:42:55 10° NE
ERS-1 Rocket 3.9 18:39:09 28° E 18:40:00 30° ENE 18:44:21 10° N
STARLINK-1073 3.5 18:37:47 10° NW 18:41:56 78° NE 18:42:33 62° ESE
STARLINK-1329 3.4 18:38:36 10° SW 18:42:35 88° NW 18:46:36 10° NE
Cosmos 1242 Rocket 3.8 18:44:29 29° NE 18:44:29 29° NE 18:46:46 10° NNE
Lacrosse 5 4.1 18:40:31 10° W 18:43:25 15° WSW 18:46:11 10° SSW
Cosmos 2026 Rocket 4.1 18:42:51 36° SSE 18:45:10 56° E 18:51:22 10° NNE
USA 238 DEB 4.0 18:38:33 10° NNW 18:45:47 61° ENE 18:49:01 35° ESE
USA 238 4.1 18:38:39 10° NNW 18:45:53 61° ENE 18:49:07 35° ESE
STARLINK-1121 3.4 18:42:45 10° NW 18:46:54 87° NE 18:47:19 71° SE
STARLINK-1362 3.5 18:43:04 10° SW 18:47:03 79° NW 18:51:03 10° NE
Meteor 1-21 4.5 18:46:32 42° SE 18:47:36 48° E 18:52:56 10° NNE
ASTRO E2 3.9 18:44:10 10° W 18:46:59 29° SW 18:46:59 29° SW
MetOp-B 4.1 18:46:58 38° S 18:49:05 83° WSW 18:54:28 10° NNW
STARLINK-1373 3.7 18:47:33 10° SW 18:51:32 71° NW 18:55:32 10° NE
Cosmos 2369 Rocket 2.8 18:46:04 10° SW 18:51:38 56° WNW 18:57:11 10° NNE
STARLINK-1106 3.4 18:47:44 10° NW 18:51:53 83° SW 18:52:06 78° S
Okean 1 Rocket 3.6 18:47:53 10° NNW 18:52:12 55° W 18:53:39 37° SSW
Cosmos 1900 4.3 18:47:26 10° NNW 18:52:32 86° WSW 18:53:43 54° SSE
Cosmos 1455 Rocket 4.0 18:48:50 10° NNE 18:52:19 32° ENE 18:52:19 32° ENE
Cosmos 2082 Rocket 4.2 18:48:34 10° NW 18:52:46 21° W 18:56:56 10° SSW
IGS 5A 3.3 18:53:13 72° ESE 18:53:28 76° ENE 18:57:37 10° N
ATLAS CENTAUR R/B 1.7 18:51:30 16° SW 18:55:03 72° WNW 18:59:19 10° NNE
Okean 2 3.5 18:54:47 54° SSW 18:55:37 73° W 18:59:45 10° N
STARLINK-1390 3.9 18:52:04 10° SW 18:56:02 64° NW 19:00:01 10° NE
CARTOSAT-1 4.3 18:56:59 38° ENE 18:56:59 38° ENE 19:00:46 10° N
STARLINK-1112 3.5 18:52:43 10° NW 18:56:52 74° SW 18:56:54 74° SW
Cosmos 968 Rocket 4.4 18:53:02 10° N 18:57:35 31° ENE 18:57:56 31° ENE
STARLINK-1365 4.2 18:57:36 10° WSW 19:01:34 55° NW 19:05:34 10° NE
STARLINK-1128 3.7 18:57:42 10° NW 19:01:40 65° WSW 19:01:40 65° WSW
STARLINK-1113 4.0 19:02:43 10° NW 19:06:28 56° WSW 19:06:28 56° WSW
Cosmos 1766 3.6 19:07:07 10° NNW 19:10:58 60° W 19:10:58 60° W
STARLINK-1119 4.3 19:07:43 10° NW 19:11:14 48° WSW 19:11:14 48° WSW
Resurs 01 Rocket 3.6 19:10:21 17° SW 19:12:20 22° W 19:15:49 10° NW
ATLAS 3B CENTAUR R/B 3.4 19:01:38 10° W 19:18:23 65° SSW 19:21:14 45° SE
Spot 2 Rocket 4.0 19:17:24 43° SW 19:18:28 50° W 19:23:23 10° NNW
SPOT 5 3.0 19:18:40 65° E 19:18:57 67° ENE 19:24:16 10° N
CENTAUR R/B 3.4 19:12:41 10° NNW 19:20:59 63° ENE 19:24:00 43° ESE
Terra 2.3 19:23:50 47° NE 19:23:50 47° NE 19:27:56 10° N
Cosmos 1655 Rocket 4.3 19:24:16 48° E 19:24:17 48° E 19:30:15 10° NNE
ATLAS 3B R/B 3.9 19:22:52 10° N 19:28:48 30° NE 19:30:52 26° E
Cosmos 1544 Rocket 4.2 19:25:58 10° N 19:29:17 48° NNE 19:29:17 48° NNE
Cosmos 1503 Rocket 4.3 19:36:27 10° N 19:41:16 58° NE 19:41:16 58° NE
COSMOS 2455 3.4 19:40:33 28° SW 19:43:36 56° WNW 19:49:31 10° NNE
NOSS 3-2 (C) 4.1 19:36:05 10° NNW 19:44:04 87° WSW 19:46:03 58° SSE
Cosmos 1470 4.4 19:45:38 10° N 19:47:46 32° NNW 19:47:46 32° NNW
Cosmos 1025 Rocket 4.2 19:53:47 41° NNW 19:53:47 41° NNW 19:56:48 10° N
Meteor 2-19 Rocket 4.5 19:58:42 67° ENE 19:58:42 67° ENE 20:04:17 10° NNE
Milstar 3 Cent rocket 4.0 19:51:43 10° WSW 20:00:41 72° S 20:21:09 10° E
Cosmos 1354 Rocket 4.4 19:58:49 10° NNW 20:03:14 62° NNW 20:03:14 62° NNW
RESURS DK-1 4.3 20:06:49 27° N 20:06:49 27° N 20:08:49 10° NNE
Cosmos 1417 Rocket 4.4 19:59:10 10° N 20:05:32 81° W 20:05:36 81° WSW
Cosmos 1953 4.5 20:09:58 10° N 20:11:39 24° N 20:11:39 24° N
Cosmos 2098 Rocket 4.2 20:31:46 86° ENE 20:31:46 86° ENE 20:39:12 10° N
S3M 4.5 20:31:51 10° NNW 20:37:28 53° WNW 20:37:28 53° WNW
Cosmos 2315 Rocket 4.3 20:36:29 10° N 20:41:41 62° NNE 20:41:41 62° NNE
Cosmos 2227 Rocket 4.1 20:42:31 10° NNE 20:46:35 20° ENE 20:46:35 20° ENE
SJ 16-02 4.2 20:45:11 10° NE 20:45:35 11° NE 20:45:35 11° NE
Terra 4.4 21:02:43 12° WNW 21:02:43 12° WNW 21:03:29 10° WNW
CENTAUR R/B 4.3 21:04:21 10° NW 21:11:10 29° WSW 21:11:10 29° WSW
ATLAS 3B R/B 3.5 21:13:03 10° NW 21:18:06 42° WNW 21:18:06 42° WNW
Cosmos 1980 Rocket 4.0 21:28:20 22° ENE 21:28:20 22° ENE 21:30:45 10° NE
SeaSat 1 4.2 21:24:24 10° N 21:27:48 27° NW 21:27:48 27° NW
CZ-4C R/B 3.4 21:46:26 34° NNW 21:46:26 34° NNW 21:50:20 10° NNE
Cosmos 2297 Rocket 3.2 21:47:32 10° NNW 21:51:12 42° NNW 21:51:12 42° NNW
Cosmos 2219 4.4 21:51:23 10° NNW 21:54:40 36° NW 21:54:40 36° NW
Lacrosse 4 Rocket 4.0 21:53:18 10° N 21:54:47 19° N 21:54:47 19° N
Cosmos 1697 Rocket 3.7 22:12:54 40° NNW 22:12:54 40° NNW 22:17:06 10° N
Cosmos 2278 4.5 22:14:15 48° N 22:14:15 48° N 22:18:18 10° NNE
Cosmos 1709 Rocket 4.3 22:20:26 61° N 22:20:26 61° N 22:25:27 10° N
Resurs 1-4 Rocket 3.8 22:19:27 10° NE 22:22:45 24° ENE 22:22:45 24° ENE
SJ 16-02 3.8 22:21:29 10° NNW 22:22:33 17° NNW 22:22:33 17° NNW
SL-16 R/B 4.2 22:25:18 22° E 22:27:22 26° ENE 22:32:18 10° NNE
Cosmos 2227 Rocket 3.6 22:25:28 10° NNW 22:28:23 29° NW 22:28:23 29° NW
SL-16 R/B 3.3 22:40:52 35° E 22:40:52 35° E 22:45:02 10° NE
USA 215 3.6 22:40:51 34° ESE 22:43:42 60° NE 22:50:07 10° NW
Cosmos 2285 Rocket 4.1 22:41:36 10° NNW 22:47:05 68° NNW 22:47:05 68° NNW
CZ-2D R/B 2.9 22:49:34 10° NNE 22:53:42 46° ENE 22:53:42 46° ENE
Cosmos 2360 Rocket 3.8 23:02:11 24° ESE 23:02:17 24° ESE 23:06:40 10° NE
Cosmos 2221 4.5 22:59:20 10° NNE 23:02:38 24° ENE 23:02:38 24° ENE
Cosmos 2074 Rocket 3.9 23:06:41 87° NE 23:06:41 87° NE 23:12:52 10° N
GP-B 4.4 23:02:47 10° N 23:05:32 38° N 23:05:32 38° N
Cosmos 1980 Rocket 3.5 23:10:05 28° NW 23:10:05 28° NW 23:14:35 10° N
FALCON 9 R/B 3.3 23:08:52 48° W 23:11:12 79° SSW 23:32:49 10° ESE
CZ-4B R/B 3.6 23:19:36 10° NNE 23:24:38 73° ENE 23:24:38 73° ENE
Cosmos 2184 Rocket 4.1 23:31:40 58° W 23:31:40 58° W 23:37:44 10° N
UNK 4.2 23:33:20 56° N 23:33:20 56° N 23:36:58 10° NNW
ADEOS II 2.8 23:28:06 10° NNE 23:33:07 44° E 23:33:43 42° ESE
Cosmos 2263 Rocket 2.4 23:27:42 10° NNW 23:33:16 66° ENE 23:34:22 53° ESE
Timation 1 Rocket 4.2 23:27:25 10° NNW 23:33:16 77° W 23:33:16 77° W
Cosmos 2327 Rocket 4.4 23:32:59 73° SSW 23:33:37 82° W 23:40:01 10° N
IRS-1D 3.7 23:31:39 10° NNE 23:36:50 64° ESE 23:37:02 63° ESE
Cosmos 1610 Rocket 4.3 23:39:27 71° SW 23:40:00 78° W 23:46:12 10° N
AQUA 3.9 23:35:15 10° N 23:39:31 69° NNW 23:39:31 69° NNW
NPP 3.7 23:36:07 10° N 23:41:24 62° WNW 23:41:24 62° WNW
SL-4 R/B 4.5 23:37:58 10° NNW 23:42:00 26° NNE 23:45:53 10° E
ARIANE 5 R/B 3.8 23:39:01 10° NE 23:43:23 30° E 23:44:42 27° SE
Cosmos 1892 3.7 23:46:53 43° NNE 23:46:53 43° NNE 23:49:31 10° N
STARLINK-1015 4.3 23:48:24 50° ENE 23:48:24 50° ENE 23:51:35 10° NE
Cosmos 2322 Rocket 2.2 23:47:54 60° W 23:48:10 60° WNW 23:53:44 10° NNE
In-Cosmos 22 Rocket 4.0 23:49:15 74° SSW 23:49:47 84° W 23:55:20 10° N
STARLINK-1016 4.1 23:53:10 58° NE 23:53:10 58° NE 23:56:34 10° NE
STARLINK-24 4.2 23:53:38 51° N 23:53:38 51° N 23:56:52 10° NE
